Weather History for Paso Robles, CA

Change the Weather History Date:

Wednesday, January 23, 2013

  Actual Average Record
Temperature  
Mean Temperature 51 °F 48 °F  
Max Temperature 60 °F 60 °F 78 °F (1968)
Min Temperature 41 °F 36 °F 21 °F (2007)
Degree Days  
Heating Degree Days 14 17  
Month to date heating degree days 472 416  
Since 1 July heating degree days 1411 1540  
Cooling Degree Days 0 0  
Month to date cooling degree days 0 0  
Year to date cooling degree days 0 0  
Moisture  
Dew Point 38 °F    
Average Humidity 63    
Maximum Humidity 86    
Minimum Humidity 40    
Precipitation  
Precipitation 0.01 in 0.09 in 1.00 in (2008)
Month to date precipitation 0.44 2.04  
Year to date precipitation 0.44 2.04  
Since 1 July precipitation 3.65 6.03  
Sea Level Pressure  
Sea Level Pressure 30.05 in    
Wind  
Wind Speed 2 mph (SSW)    
Max Wind Speed 15 mph    
Max Gust Speed 17 mph    
Visibility 10 miles    
Events Rain    
T = Trace of Precipitation, MM = Missing Value Source: NWS Daily Summary

Daily Weather History Graph

Daily Weather History Graph

Search for Another Location

Airport:

Trip Planner

Search our weather history database for the weather conditions in past years. The results will help you decide how hot, cold, wet, or windy it might be!

Date:

Astronomy

Jan. 23, 2013 Rise Set
Actual Time 7:08 AM PST 5:21 PM PST
Civil Twilight 6:40 AM PST 5:48 PM PST
Nautical Twilight 6:09 AM PST 6:19 PM PST
Astronomical Twilight 5:39 AM PST 6:49 PM PST
Moon 2:37 PM PST (1/23) 4:22 AM PST (1/23)
Length of Visible Light 11h 07m
Length of Day
10h 12m
Waxing Gibbous, 90% of the Moon is Illuminated
Jan 23
Waxing Gibbous
Jan 26
Full
Feb 3
Last Quarter
Feb 9
New
Feb 17
First Quarter

Hourly Weather History & Observations

Time (PST) Temp. Dew Point Humidity Pressure Visibility Wind Dir Wind Speed Gust Speed Precip Events Conditions
12:53 AM 43.0 °F 35.1 °F 74% 30.06 in 10.0 mi Calm Calm - N/A   Clear
1:53 AM 42.1 °F 35.1 °F 76% 30.05 in 10.0 mi Calm Calm - N/A   Clear
2:53 AM 42.1 °F 36.0 °F 79% 30.05 in 10.0 mi Calm Calm - N/A   Clear
3:53 AM 42.1 °F 36.0 °F 79% 30.04 in 10.0 mi Calm Calm - N/A   Clear
4:53 AM 42.1 °F 37.0 °F 82% 30.02 in 10.0 mi Calm Calm - N/A   Clear
5:53 AM 41.0 °F 37.0 °F 86% 30.03 in 10.0 mi Calm Calm - N/A   Clear
6:53 AM 42.1 °F 37.0 °F 82% 30.05 in 10.0 mi Calm Calm - N/A   Clear
7:53 AM 42.1 °F 37.9 °F 85% 30.06 in 10.0 mi Calm Calm - N/A   Clear
8:53 AM 45.0 °F 37.9 °F 76% 30.08 in 10.0 mi Calm Calm - N/A   Clear
9:53 AM 48.0 °F 39.0 °F 71% 30.08 in 10.0 mi Calm Calm - N/A   Clear
10:53 AM 50.0 °F 37.9 °F 63% 30.08 in 10.0 mi Calm Calm - N/A   Partly Cloudy
11:53 AM 51.1 °F 37.9 °F 61% 30.04 in 10.0 mi WNW 6.9 mph - N/A   Overcast
12:53 PM 55.0 °F 39.0 °F 55% 30.01 in 10.0 mi SSW 8.1 mph - N/A   Overcast
1:53 PM 57.0 °F 37.0 °F 47% 30.00 in 10.0 mi South 8.1 mph - N/A   Overcast
2:53 PM 57.9 °F 39.0 °F 49% 30.03 in 10.0 mi SE 6.9 mph - N/A   Overcast
3:53 PM 59.0 °F 37.9 °F 46% 30.02 in 10.0 mi South 5.8 mph - 0.00 in   Overcast
4:53 PM 57.9 °F 37.9 °F 47% 30.03 in 10.0 mi Calm Calm - N/A   Overcast
5:53 PM 57.9 °F 34.0 °F 41% 30.06 in 10.0 mi SSW 5.8 mph - N/A   Overcast
6:53 PM 55.9 °F 35.1 °F 45% 30.07 in 10.0 mi South 3.5 mph - N/A   Overcast
7:53 PM 53.1 °F 41.0 °F 64% 30.06 in 10.0 mi WSW 3.5 mph - N/A   Overcast
8:53 PM 52.0 °F 41.0 °F 66% 30.06 in 10.0 mi Calm Calm - 0.00 in   Overcast
9:53 PM 51.1 °F 41.0 °F 68% 30.06 in 10.0 mi Calm Calm - N/A   Overcast
10:53 PM 50.0 °F 42.1 °F 74% 30.06 in 10.0 mi Calm Calm - 0.00 in Rain Light Rain
11:53 PM 48.0 °F 45.0 °F 89% 30.04 in 10.0 mi Calm Calm - 0.01 in   Overcast